STARLINK-5188, 54096

Orbit data source: Space-Track

STARLINK-5188, 54096 is a payload satellite owned by SpaceX/Seattle (US) in LEO that was launched on Thu, 20 Oct 2022 UTC via an FALCON 9 launch vehicle from the Air Force Eastern Test Range (AFETR). Payload-class satellites include a variety of spacecraft equipped with specific instruments for various scientific and technological missions. These include communications satellites like Starlink; space stations such as the ISS; scientific satellites like the Hubble; Earth observation satellites from companies like Planet Labs, Umbra, and HawkEye 360; GPS; miniature CubeSats for education and research; and military/defense satellites.

Loading next visibility...
Identifier
54096, 2022-136AX
Orbit
LEO
Country
Flag of USUS
Related business
Manufacturer
SpaceX/Seattle
Mission
Operational Commercial Communications
Bus & Motor
STARLINK, Unknown motor
Mass
305 kg wet, ~290 kg dry
Launch date (UTC)
2022-10-20 (3 years ago)
Launch vehicle
FALCON 9
Launch site
Air Force Eastern Test Range (AFETR)
Object type
Payload
Rocket body
Debris
Shape & HBR
Box + 1 Pan, 10.1 m
Radar Cross Section
13.562 m², Large (>1 m²)

Expand to show TLE details & history
Last TLE update: 14 hours ago

TLE from 14 hours ago
0 STARLINK-5188
1 54096U 22136AX  25303.96922125  .00000362  00000-0  40811-4 0  9996
2 54096  53.2159 196.2496 0001278  96.5824 263.5314 15.08845111167406
Epoch: 2025-10-30T23:15Z
TLE epoch observation values (Epoch: 2025-10-30T23:15:40.716Z)
Latitude
0.00003°
Longitude
167.80959°
Altitude
540.725 km
Speed
7.593 km/s
True Right ascension
13h 04m 59s
True Declination
0° 00' 00"
Sunlit
Object was in daylight at epoch
Visualization orbit readout
Latitude
Unknown
Longitude
Unknown
Altitude
Unknown
Speed
Unknown
Apparent Right ascension
Unknown
Apparent Declination
Unknown
Sunlit
N/A
Visualization observer readout
Local Sidereal Time
08:35:00
Azimuth
Unknown
Elevation
Unknown
Doppler factor
Unknown
Orbital elements
Apogee altitude
540.857 km
Perigee altitude
539.089 km
Semi-major axis
6,918.11 km
Eccentricity
0.00013
Inclination
53.2159°
RAAN
196.2496°
Arg. of periapsis
96.5824°
True anomaly
263.51685°
Mean anomaly
263.5314°
Eccentric anomaly
263.52412°
Mean motion
3.77192 °/min
Orbital period
95.44 mins
BSTAR
0.000040811
Loading maneuver chart data...
Computing Atmospheric mass density...
Loading historical data...
Loading historical data...
Loading historical data...
Loading historical data...
Loading historical data...
Loading historical data...
Loading historical data...

Documentation

Showing up to 5 results
|